Location: Utrecht
(52.0907°N, 5.1214°E)
Time: 21:57:05
(UTC+01:00)

Envisat - Visible Passes

Search period start: 21 January 2022 00:00
Search period end: 31 January 2022 00:00
Orbit: 764 x 766 km, 98.2° (Epoch: 21 January)

Date Brightness Start Highest point End Pass type
(mag) Time Alt. Az. Time Alt. Az. Time Alt. Az.
21 Jan 4.2 05:05:29 10° NNE 05:10:16 39° E 05:15:01 10° SSE visible
21 Jan 3.5 06:44:37 10° N 06:49:17 37° WNW 06:53:54 10° SW visible
21 Jan 5.9 18:07:10 10° SW 18:10:15 16° W 18:13:21 10° NW visible
22 Jan 5.3 04:29:16 10° NE 04:33:02 21° E 04:36:48 10° SE visible
22 Jan 2.9 06:07:30 10° N 06:12:34 69° WNW 06:17:36 10° SSW visible
22 Jan 4.6 07:48:02 10° NNW 07:50:44 15° NW 07:53:25 10° W visible
23 Jan 6.1 03:55:13 10° ENE 03:55:36 10° E 03:55:59 10° E visible
23 Jan 3.4 05:30:36 10° NNE 05:35:41 63° ESE 05:40:43 10° S visible
23 Jan 4.0 07:10:15 10° N 07:14:20 25° WNW 07:18:24 10° WSW visible
24 Jan 4.6 04:54:02 10° NNE 04:58:35 32° E 05:03:07 10° SSE visible
24 Jan 3.3 06:32:55 10° N 06:37:46 44° WNW 06:42:33 10° SW visible
24 Jan 5.8 17:54:51 10° SW 17:58:30 20° W 18:02:10 10° NW visible
25 Jan 5.6 04:18:03 10° NE 04:21:18 17° E 04:24:32 10° SE visible
25 Jan 2.9 05:55:52 10° NNE 06:00:59 84° WNW 06:06:05 10° SSW visible
25 Jan 4.4 07:36:05 10° NNW 07:39:18 17° NW 07:42:31 10° W visible
26 Jan 3.7 05:19:04 10° NNE 05:24:03 51° E 05:28:58 10° S visible
26 Jan 3.8 06:58:29 10° N 07:02:51 29° WNW 07:07:12 10° WSW visible
26 Jan 6.1 18:22:12 10° WSW 18:24:10 12° W 18:26:09 10° WNW visible
27 Jan 4.9 04:42:36 10° NE 04:46:53 26° E 04:51:08 10° SSE visible
27 Jan 3.0 06:21:15 10° N 06:26:13 54° WNW 06:31:09 10° SW visible
28 Jan 5.8 04:07:01 10° NE 04:09:32 14° E 04:12:03 10° ESE visible
28 Jan 3.0 05:44:16 10° NNE 05:49:24 81° ESE 05:54:29 10° SSW visible
28 Jan 4.2 07:24:13 10° N 07:27:51 20° NW 07:31:29 10° WSW visible
29 Jan 4.1 05:07:33 10° NNE 05:12:23 41° E 05:17:10 10° SSE visible
29 Jan 3.6 06:46:45 10° N 06:51:21 35° WNW 06:55:55 10° SW visible
29 Jan 6.0 18:09:30 10° WSW 18:12:23 15° W 18:15:17 10° NW visible
30 Jan 5.2 04:31:16 10° NE 04:35:10 22° E 04:39:03 10° SE visible
30 Jan 2.9 06:09:36 10° N 06:14:39 65° WNW 06:19:41 10° SSW visible
